Presure
158 195 191 121 168 114 160 177 100 180 179 105 79 87 88 157 168 181 121 136 164 99 113 90 89 95 121 97 157 121 99 97 102 86 97 82 101 97 109 129 128 144 134
214 199 85 192 175 175 186 176 174 181 182 138 181 89 79 88 114 89 107 117 150 139 132 122 149 89 135 95 102 132 97 128 89 102 90 99 84 98 91 130 126 115 120
153 174 82 80 95 166 175 89 171 173 180 186 168 160 177 132 94 87 111 130 131 131 90 95 134 136 100 99 139 97 96 98 102 101 94 129 129 102 98 106 110 133 114
209 70 63 137 187 142 81 165 86 75 177 112 184 184 72 126 150 108 128 127 163 132 106 92 98 104 124 121 133 172 95 96 86 96 92 114 123 111 107 85 118 122 125
197 185 179 191 179 186 165 96 81 91 169 190 102 162 159 159 88 97 148 122 126 161 131 137 92 84 95 100 137 181 174 88 92 135 123 92 110 133 146 106 106 108 119
179 180 191 185 179 176 184 90 187 100 84 169 173 175 167 174 111 143 118 105 165 106 80 125 126 131 95 94 131 84 146 172 97 99 95 97 94 101 90 125 106 141 108
190 178 193 191 180 182 180 102 172 177 164 115 158 113 120 169 155 134 179 157 162 159 150 161 177 130 180 130 117 95 101 115 102 158 111 101 99 96 96 129 101 117 96
184 185 187 189 195 172 172 181 180 177 175 175 178 162 160 165 174 176 163 169 151 97 103 102 163 152 156 160 161 152 131 95 93 157 102 146 132 96 97 120 100 99 97
195 198 197 200 190 178 201 183 181 179 167 161 172 174 171 179 161 170 106 110 106 105 170 165 180 177 139 178 171 185 174 167 159 138 92 97 99 144 101 95 101 95 121
200 206 162 185 204 201 209 182 183 181 168 173 174 174 177 183 98 186 167 97 164 174 167 104 188 175 181 97 95 174 175 186 183 161 135 157 136 169 104 97 97 165 97
184 185 192 178 170 198 162 203 182 191 203 160 177 196 163 163 163 163 160 187 153 179 179 172 176 164 167 171 170 169 167 122 93 170 168 171 179 151 117 161 128 97 123
182 184 176 172 165 174 179 167 178 172 175 186 179 190 182 169 169 171 169 162 177 184 175 179 183 171 173 180 182 178 167 172 178 169 170 148 123 125 130 144 158 154 169
181 178 181 181 180 187 191 187 187 176 188 188 171 162 192 200 201 169 204 201 193 163 163 158 177 173 165 170 173 170 172 175 175 177 177 179 179 175 175 168 125 131 140
202 203 203 201 199 196 200 217 217 219 218 215 196 195 195 194 185 195 194 194 194 188 184 189 200 200 197 198 204 204 219 185 184 180 175 171 175 180 179 179 178 186 173
174 174 174 173 171 170 170 171 174 178 180 180 183 185 185 188 191 192 191 189 188 193 194 195 190 197 193 190 193 188 187 200 167 209 182 172 173 169 170 167 173 177 175
162 163 165 165 168 169 177 185 184 184 182 176 176 174 171 174 174 175 181 178 178 185 183 182 187 185 183 201 195 206 219 204 212 209 202 184 188 192 210 199 173 172 172
160 160 143 157 158 158 157 161 169 165 159 176 182 183 190 180 187 152 151 152 153 157 153 155 159 161 163 164 167 191 201 205 195 195 204 223 217 214 209 139 185 192 172
173 170 173 167 173 146 144 149 173 179 172 175 188 178 146 152 168 180 172 188 180 196 179 193 199 200 189 170 197 174 173 172 179 205 193 193 219 203 231 238 236 205 146
151 152 147 147 150 149 149 146 157 156 154 160 163 167 171 172 172 180 182 169 175 189 176 174 170 167 153 182 175 175 183 172 176 181 168 164 160 178 203 197 225 244 245
160 170 168 166 169 161 149 157 168 171 171 170 174 175 172 166 173 171 175 171 190 179 176 177 177 183 185 168 197 200 197 200 192 194 198 209 191 214 205 190 217 176 228
160 149 150 159 161 163 159 164 164 167 167 167 167 171 173 164 182 178 174 175 162 163 175 168 190 175 180 178 173 183 192 189 192 203 203 209 209 196 205 213 224 223 183
157 160 163 165 157 156 161 165 165 161 160 160 160 171 166 166 171 170 181 183 174 173 168 178 184 189 195 184 189 190 180 189 191 197 198 211 208 204 204 209 212 187 229
152 158 152 148 154 159 159 155 158 158 153 152 164 161 170 161 164 179 175 176 161 155 192 188 204 202 191 191 191 193 182 185 210 208 212 242 197 217 173 236 215 229 205
151 143 153 138 150 155 159 156 153 162 162 164 162 164 167 170 178 173 175 173 187 181 170 183 185 190 191 183 178 198 199 210 201 209 212 213 249 239 209 223 238 231 274
164 160 146 151 153 152 152 145 158 141 154 154 170 158 169 174 172 168 176 164 187 181 192 173 185 184 194 205 182 193 210 236 216 213 258 213 262 231 230 262 248 220 228
150 154 158 159 154 155 155 155 163 160 161 162 170 152 169 155 173 181 170 174 180 180 182 183 180 174 197 215 217 187 220 208 235 206 213 240 282 341 359 367 357 346 338
Wind_Speed
30 34 36 29 46 39 48 38 30 37 42 29 26 29 31 41 44 44 35 39 40 39 43 36 35 37 41 37 45 40 33 30 34 30 37 26 32 30 34 41 41 41 39
25 29 14 39 43 45 36 40 46 46 46 28 43 34 26 36 40 35 36 38 43 43 45 49 46 36 47 37 41 50 35 45 37 37 32 38 29 33 34 43 43 40 38
31 32 27 30 29 47 51 39 52 48 49 44 43 42 45 46 44 35 40 44 45 45 39 42 48 49 43 40 51 41 38 36 39 38 39 45 49 38 35 37 39 45 39
34 22 9 41 49 45 37 50 49 22 51 48 42 42 27 36 45 49 47 49 46 50 47 41 44 47 54 51 54 44 41 41 38 41 41 44 46 47 41 31 46 48 49
34 36 37 49 44 49 52 51 43 50 52 52 54 46 45 43 30 46 47 56 56 49 58 56 44 37 45 48 56 47 48 37 40 52 50 43 47 53 46 43 44 42 46
33 35 42 49 53 46 49 43 58 52 49 44 49 53 49 54 57 53 57 53 48 54 39 61 61 60 49 47 60 36 51 49 44 45 44 44 43 43 40 57 44 57 42
31 32 43 52 48 55 52 43 45 52 48 51 44 52 60 49 51 61 58 54 52 50 53 49 55 65 53 63 54 50 53 52 52 51 49 50 48 46 45 58 45 51 40
30 35 43 47 54 42 42 54 56 54 50 50 57 45 53 50 55 57 52 53 60 53 55 55 57 59 57 60 60 60 65 44 48 55 55 57 67 50 49 58 48 46 45
30 39 40 49 49 40 61 52 51 54 42 42 52 56 55 58 55 59 53 54 58 57 63 59 60 59 57 61 61 59 62 62 64 71 51 55 57 61 52 50 52 49 61
27 38 33 26 43 47 55 44 47 50 43 51 55 56 58 58 61 49 56 60 59 62 61 64 61 65 61 66 64 61 62 58 60 67 76 69 76 65 60 57 53 67 52
21 22 24 28 31 30 38 45 40 51 53 50 54 58 52 56 58 59 58 55 62 59 60 64 64 66 67 68 68 68 68 67 66 68 62 68 68 76 63 71 71 56 65
22 23 28 32 37 33 33 38 37 43 43 48 52 53 59 60 60 60 62 63 59 61 61 64 65 68 70 70 71 72 73 72 71 74 73 76 77 77 78 77 77 79 76
24 26 26 27 28 29 33 33 34 36 38 43 49 50 47 50 52 58 59 58 61 64 66 68 67 69 71 72 72 73 74 75 77 77 77 77 76 78 79 79 80 82 85
18 23 27 30 33 33 36 40 39 40 41 39 37 37 39 41 48 45 46 47 50 57 61 59 56 57 61 62 64 67 67 79 81 81 81 82 82 81 82 82 84 81 84
21 21 21 23 26 29 32 33 33 35 38 40 41 41 43 45 45 47 48 50 52 52 53 54 59 59 62 65 66 73 76 72 86 74 84 86 87 87 88 89 89 89 89
28 29 28 29 30 32 28 28 32 33 35 39 41 44 49 49 50 53 53 55 56 57 59 62 61 63 66 60 65 63 64 70 73 77 81 87 88 89 86 89 95 95 94
31 32 35 36 36 39 40 41 38 45 45 36 38 42 41 46 46 60 62 65 68 69 71 72 74 76 78 80 81 72 68 71 75 80 75 74 80 85 90 95 101 97 101
23 25 26 30 30 44 45 47 38 37 41 43 40 48 55 59 53 52 55 57 60 59 64 61 64 65 73 76 72 89 90 89 92 80 87 84 79 90 89 88 90 99 99
43 44 47 48 49 51 52 51 45 50 56 61 59 57 55 56 57 56 58 66 66 66 70 73 79 80 88 78 80 84 84 88 91 95 101 103 102 98 93 93 90 95 98
39 35 37 40 39 46 51 52 45 46 46 50 50 51 54 58 59 61 65 66 67 71 75 77 79 84 85 90 87 89 92 93 91 92 94 101 99 101 95 102 103 106 100
40 52 53 48 47 47 50 49 50 51 52 53 54 55 58 61 65 65 68 70 73 75 80 82 85 91 94 89 88 94 98 98 101 104 108 110 110 106 105 109 117 116 118
45 44 45 45 49 54 53 51 53 56 56 57 59 61 61 64 67 70 73 72 76 80 84 87 88 92 94 99 98 95 95 104 107 108 111 117 120 114 116 116 117 120 120
52 49 53 55 55 55 57 60 60 60 61 62 62 63 68 66 71 75 74 76 82 85 86 89 87 93 96 102 107 106 102 103 102 110 110 113 116 122 115 132 122 134 114
56 58 58 54 59 59 61 63 65 67 68 67 65 66 70 73 78 73 76 80 84 85 90 91 94 96 102 108 109 117 120 120 121 114 118 118 115 124 120 131 140 134 131
53 57 65 64 63 64 66 66 70 66 72 70 78 68 77 80 79 79 84 83 92 93 98 97 101 105 109 112 118 124 124 119 125 121 104 125 120 133 124 131 149 124 136
64 63 63 65 67 69 70 72 72 75 78 76 80 72 82 79 87 93 85 92 95 99 101 108 109 111 121 119 121 124 124 139 124 130 123 124 137 124 113 113 113 112 111
Wind_Direction
232 223 222 237 239 246 246 242 247 233 228 235 243 241 243 240 242 240 241 230 247 241 242 247 250 248 249 251 246 249 245 240 252 245 243 248 252 249 262 259 260 254 256
206 207 229 213 223 230 212 231 238 228 234 241 223 243 259 243 241 245 241 238 235 238 240 244 240 250 247 248 247 248 245 251 240 249 246 249 254 251 253 256 260 265 266
233 204 222 239 238 226 233 252 244 243 236 228 243 243 244 242 242 252 246 239 239 241 245 243 245 247 248 248 252 245 246 247 248 245 243 251 251 253 252 260 264 260 263
195 258 281 234 218 226 246 231 246 267 234 250 234 230 255 251 240 241 239 239 247 237 246 254 249 250 249 249 251 248 246 244 247 243 246 251 251 252 257 252 260 262 263
201 214 221 204 227 223 222 240 258 252 230 224 254 254 254 255 264 254 249 238 239 248 239 241 260 260 256 255 248 257 253 253 248 250 252 250 253 252 251 256 258 258 261
218 217 207 203 217 232 230 251 229 247 266 247 244 244 253 252 255 242 250 257 258 255 270 241 243 246 261 260 246 259 255 251 255 256 254 253 252 257 256 254 255 256 258
209 220 208 209 221 222 230 248 239 235 244 253 247 259 248 258 261 250 259 251 256 255 255 252 259 246 255 248 262 263 262 260 260 252 254 257 255 252 252 253 257 256 259
216 212 213 219 218 232 235 231 235 242 245 248 248 257 256 255 260 260 258 259 257 257 256 256 251 246 248 252 250 242 252 254 258 253 261 252 250 254 254 255 255 257 257
214 212 215 214 221 233 226 234 237 240 249 248 253 253 255 255 253 256 259 258 259 261 261 259 264 263 264 260 257 263 257 253 255 244 254 256 257 252 254 254 256 253 257
222 216 226 221 228 229 231 236 239 243 244 250 251 252 253 252 256 262 265 260 259 258 259 261 265 263 263 263 264 259 257 260 257 249 249 246 249 252 256 256 254 252 253
220 224 232 219 221 236 232 238 243 250 249 243 253 253 248 249 252 254 255 263 259 259 259 257 257 255 257 257 256 253 252 261 263 251 253 252 250 246 251 252 251 254 252
228 227 231 230 230 234 229 230 233 236 240 246 245 250 248 249 253 256 258 259 261 259 258 259 259 257 258 258 258 257 255 254 254 251 250 255 260 258 256 253 245 248 249
236 241 247 249 249 262 265 266 268 250 268 269 260 253 265 267 269 259 272 268 265 263 264 264 264 264 264 265 264 262 261 260 259 259 257 256 253 251 250 250 260 260 256
238 240 247 253 256 260 261 261 262 263 265 268 268 268 270 269 264 268 270 267 265 259 260 263 269 270 270 269 270 268 270 262 262 261 260 258 258 255 254 254 252 252 248
250 250 252 254 255 255 257 258 258 258 260 264 267 269 271 273 273 273 272 272 272 273 272 270 269 269 267 266 266 264 262 263 261 263 259 257 256 254 253 254 254 253 252
258 257 256 257 260 263 264 267 269 271 271 272 274 275 274 275 275 275 274 274 273 272 271 272 271 269 267 271 267 272 274 270 268 267 264 261 259 259 257 255 252 252 252
265 266 263 271 271 271 273 272 269 270 274 270 274 273 278 273 278 275 274 275 277 277 274 274 273 271 271 270 271 268 269 273 265 262 265 270 264 262 260 255 256 254 252
263 262 265 267 268 277 275 274 269 283 264 267 290 270 277 276 276 289 275 293 283 291 282 292 292 290 279 273 278 269 272 273 271 273 267 266 272 263 268 266 262 253 254
268 267 277 277 272 273 274 278 279 276 272 269 269 269 275 278 279 293 293 281 289 300 283 284 279 282 272 281 276 276 280 273 272 273 266 265 263 261 267 265 267 264 262
272 270 268 269 274 270 278 273 285 285 285 280 291 295 287 281 292 289 298 289 297 295 293 293 291 291 288 270 288 287 287 286 283 281 281 278 266 275 271 259 272 260 266
268 270 272 271 272 276 276 280 283 287 287 289 293 299 302 293 306 300 298 297 286 287 297 289 294 292 290 286 281 289 287 286 284 283 283 282 277 269 276 275 267 268 258
271 275 278 278 277 277 281 285 287 286 287 289 291 300 293 294 299 297 301 298 296 294 291 292 290 289 286 288 285 282 283 283 283 281 281 275 274 277 275 273 273 261 264
270 272 274 275 278 281 284 285 287 287 286 288 294 292 297 291 294 301 298 297 287 284 297 293 296 295 290 288 287 286 285 283 277 277 281 272 281 275 269 264 272 267 265
270 278 276 280 281 283 284 285 286 290 291 293 292 293 296 297 300 298 296 294 299 296 291 297 297 297 296 291 289 290 289 289 286 282 278 281 278 276 281 277 267 270 269
271 272 280 279 280 281 283 285 286 286 288 290 295 290 298 302 299 296 299 289 302 302 304 295 297 295 295 295 291 291 291 294 286 288 291 282 292 277 280 274 264 273 270
271 272 274 276 279 280 281 284 287 287 289 292 295 285 299 288 301 304 297 301 302 302 302 302 298 294 298 297 291 293 295 291 294 292 291 284 296 287 280 273 271 268 266